STARLINK-34546, 64718

Orbit data source: Space-Track

STARLINK-34546, 64718 is a payload satellite owned by SpaceX/Seattle (US) in LEO that was launched on Sat, 28 Jun 2025 UTC via an FALCON 9 launch vehicle from the Air Force Western Test Range (AFWTR). Payload-class satellites include a variety of spacecraft equipped with specific instruments for various scientific and technological missions. These include communications satellites like Starlink; space stations such as the ISS; scientific satellites like the Hubble; Earth observation satellites from companies like Planet Labs, Umbra, and HawkEye 360; GPS; miniature CubeSats for education and research; and military/defense satellites.

Not visible in the next 10 days
Identifier
64718, 2025-142Y
Orbit
LEO
Last TLE update
11 hours ago
Origin
Manufacturer
SpaceX/Seattle
Mission
Operational spacecraft
Bus & Motor
STARLINK V2MO, Unknown motor
Mass
575 kg wet, ~530 kg dry
Launch date (UTC)
2025-06-28 (3 weeks ago)
Launch vehicle
FALCON 9
Launch site
Air Force Western Test Range (AFWTR)
Object type
Payload
Rocket body
Debris
Shape & HBR
Unknown
Radar Cross Section
Large (>1 m²)

Expand to show TLE details & history

TLE from 11 hours ago
0 STARLINK-34546
1 64718U 25142Y   25199.25002315 -.01852018  00000-0 -31112-1 0  9990
2 64718  70.0004 195.5346 0003673 281.3430 127.4329 15.54935307  4275
Epoch: 2025-07-18T06:00Z
TLE epoch observation values (Epoch: 2025-07-18T06:00:02Z)
Latitude
45.11546°
Longitude
-169.46911°
Altitude
410.132 km
Speed
7.669 km/s
True Right ascension
14h 27m 22s
True Declination
44° 56' 05"
Sunlit
Object was in daylight at epoch
Visualization orbit readout
Latitude
-16.13999°
Longitude
162.0058°
Altitude
412.417 km
Speed
7.663 km/s
Apparent Right ascension
14h 32m 31s
Apparent Declination
-32° 30' 33"
Sunlit
Object is in daylight
Visualization observer readout
Local Sidereal Time
05:18:23
Azimuth
90.69° ESE
Elevation
-56.05°
Doppler factor
1
Orbital elements
Apogee altitude
402.727 km
Perigee altitude
397.748 km
Semi-major axis
6,778.374 km
Eccentricity
0.00037
Inclination
70.0004°
RAAN
195.5346°
Arg. of periapsis
281.343°
True anomaly
127.46631°
Mean anomaly
127.4329°
Eccentric anomaly
127.44961°
Mean motion
3.88915 °/min
Orbital period
92.57 mins
BSTAR
-0.031112
Loading maneuver chart data...
Loading SW <> Apogee altitude chart data...
Loading historical data...
Loading historical data...
Loading historical data...
Loading historical data...
Loading historical data...
Loading historical data...
Loading historical data...
|